DUMMY SAT 2/BREEZE-M

导读

DUMMY SAT 2/BREEZE-M是由独联体(CIS)于2014年12月23日08:00发射的载荷。其中Breeze-M(微风-M)是俄罗斯研制的火箭上面级,采用双组元自燃推进剂,主发动机可多次点火,具备灵活轨道调整能力,主要配合质子-M火箭使用。此次发射的DUMMY SAT 2作为模拟载荷,主要用于验证火箭上面级的飞行性能与入轨精度,为后续实际卫星发射积累技术数据,是独联体航天发射工程测试环节的重要组成部分。

Basic Information
目录编号:
40355
目录名称:
DUMMY SAT 2/BREEZE-M
国际标识:
2014-085A
轨道中心:
EARTH
卫星名称:
DUMMY SAT 2/BREEZE-M
卫星全名:
--
卫星状态:
在轨 (已飞行4198 天)
发射日期:
2014-12-23 UTC
国别 :
俄罗斯(独联体) (CIS)
星等 :
--
Orbit Information
数据来源 国际轨道数据 AOE轨道数据
星历时间 2026-06-20T09:23:09+0800
1天前
查看轨道信息
2026-06-20T23:00:00+0800
19小时前
查看轨道信息
半长轴 44000.988km 44001.019km
偏心率 0.0369468 0.0369664
轨道倾角 10.328° 10.329°
近地点辐角 354.306° 354.324°
升交点赤经 60.514° 60.508°
平近点角 5.237° 197.312°
近地点 35997.155km 35996.322km
远地点 39248.547km 39249.442km
周期 1530.923分钟 1530.925分钟
每日圈数 0.940609 0.940608
Detailed Information
使用方式:
暂无
2D Orbit Map
3D Orbit Map
Orbit Altitude Analysis Chart
Orbit Inclination Analysis Chart
Orbit Comprehensive Analysis Chart
View Comprehensive Chart